sat.trackr.live / text

‹ back to catalog

KUIPER-00589

NORAD 69767 · 2026-151E

PAYLOAD ACTIVE UNKNOWN

§ Identity

Operator
Country
US
Launch date
2026-07-02
Launch site
AFETR
Launch vehicle
Mass (kg)
RCS (m²)

External: N2YO · Heavens-Above · Gunter

§ Orbital elements

Epoch: 2026-09-19T22:59:31.352928Z

Period
97.53 min
Inclination
51.9000°
Eccentricity
0.0002885
Mean motion
14.76534243 rev/d
Perigee alt
638.3 km
Apogee alt
642.3 km
Semi-major
7,018.4 km
B*
2.2447e-4
RAAN
237.1379°
Arg perigee
62.0528°
Mean anomaly
298.0725°
Rev number
1,201

§ Raw data

KUIPER-005891 69767U 26151E   26262.95800177  .00001364  00000+0  22447-3 0  99902 69767  51.9000 237.1379 0002885  62.0528 298.0725 14.76534243 12016

JSON: /api/v1/satellites/69767 · /tle

For live sub-satellite position, see the globe view (requires WebGL).

§ Visibility from observer

Set your observer location to see the next 7 days of passes ≥ 10°. The values pass through the URL so the page stays shareable.

No JS? Fill the form by hand. The geolocation button needs JavaScript.